Flag for Liberia Weather past 2 weeks in Kakata, Liberia

Now
77 °F

Passing clouds.


Feels Like: 78 °F
Forecast: N/A
Wind: 9 mph from Southwest

Location: Roberts Field

Current Time: Aug 30, 2014 at 8:50:38 PM

Latest Report: Aug 30, 2014 at 8:00 PM


Visibility: N/A

Pressure: 29.92 "Hg

Humidity: 94%

Dew point: 75 °F

Location of KakataLocation

Historic Weather in Kakata — Graph

°F

Kakata temperature yesterday

Maximum temperature yesterday: 82 °F (at 1:00 PM)
Minimum temperature yesterday: 77 °F (at 12:00 AM)
Average temperature yesterday: 79 °F

Past Weeks' High & Low Weather Summary

 TemperatureHumidityPressure
High122 °F (Aug 27, 5:30 AM)100% (Aug 18, 6:00 AM)30.04 "Hg (Aug 18, 6:00 AM)
Low70 °F (Aug 26, 11:00 PM)7% (Aug 27, 5:30 AM)29.86 "Hg (Aug 29, 2:03 PM)
Average77 °F91%29.95 "Hg
* Reported Aug 15 8:00 PM — Aug 30 8:00 PM, Kakata, Weather by CustomWeather, © 2014

Note: Actual official high and low records may vary slightly from our data, if they occured in-between our weather recording intervals... More about our weather records

Advertising

Kakata weather history for previous 24 hours

 ConditionsComfort  
Time TempWeatherWind HumidityBarometerVisibility
8:00 PM
Aug 30
77 °FPassing clouds.9 mph94%29.92 "HgN/A
7:00 PM77 °FThunderstorms. Partly sunny.No wind94%29.89 "HgN/A
6:30 PM77 °FThunderstorms. Partly sunny.No wind94%29.89 "HgN/A
6:00 PM77 °FThunderstorms. Partly sunny.3 mph94%29.89 "Hg4 mi
5:30 PM77 °FThunderstorms. Partly sunny.No wind94%29.89 "Hg6 mi
5:00 PM77 °FThunderstorms. Partly sunny.6 mph94%29.89 "HgN/A
4:30 PM77 °FThunderstorms. Partly sunny.8 mph94%29.89 "Hg5 mi
4:00 PM77 °FThunderstorms. Partly sunny.9 mph94%29.89 "Hg6 mi
3:30 PM77 °FRain. Partly sunny.12 mph94%29.86 "HgN/A
3:00 PM79 °FPartly sunny.12 mph94%29.92 "HgN/A
2:00 PM81 °FRain. Partly sunny.12 mph84%29.92 "HgN/A
11:00 AM79 °FRain. Partly sunny.7 mph94%29.98 "Hg4 mi
10:00 AM79 °FDrizzle. Partly sunny.No wind94%29.98 "Hg6 mi
9:00 AM79 °FThunderstorms. Partly sunny.3 mph94%29.95 "HgN/A
8:00 AM77 °FThunderstorms. Partly sunny.No wind94%29.95 "HgN/A
7:00 AM77 °FThunderstorms. Passing clouds.No wind94%29.92 "HgN/A
6:30 AM77 °FThunderstorms. Passing clouds.No wind94%29.92 "HgN/A
6:00 AM77 °FThunderstorms. Passing clouds.No wind94%29.92 "HgN/A
5:00 AM77 °FPassing clouds.No wind94%29.89 "HgN/A
4:30 AM75 °FPassing clouds.No wind94%29.92 "HgN/A
4:00 AM75 °FPassing clouds.No wind94%29.89 "HgN/A
2:00 AM77 °FPassing clouds.No wind94%29.92 "HgN/A
1:00 AM77 °FPassing clouds.3 mph94%29.95 "HgN/A
12:30 AM77 °FPassing clouds.5 mph94%29.95 "HgN/A
12:00 AM77 °FPassing clouds.No wind94%29.95 "HgN/A
11:00 PM
Aug 29
77 °FPassing clouds.No wind94%29.98 "HgN/A
10:30 PM77 °FPassing clouds.No wind94%29.98 "HgN/A
10:00 PM77 °FPassing clouds.No wind94%29.95 "HgN/A
9:30 PM77 °FPassing clouds.No wind94%29.92 "HgN/A
9:00 PM77 °FPassing clouds.No wind94%29.92 "HgN/A
Weather by CustomWeather, © 2014

See weather overviewHow to use our weather pages